Regional Weather Roundup
Issued by NWS

Home | Current Version | Previous Version | Graphics & Text | Print | Product List | Glossary On
Versions: 1 2 3 4 5 6 7 8 9 10 11 12 13 14 15 16 17 18 19 20 21 22 23 24 25 26 27 28 29 30 31 32 33 34 35 36 37 38 39 40 41 42 43 44 45 46 47 48 49 50
574
ASUS45 KPSR 191610
RWRAZ

ARIZONA HOURLY REGIONAL WEATHER ROUNDUP
NATIONAL WEATHER SERVICE PHOENIX AZ
900 AM MST TUE SEP 19 2017

NOTE: FAIR INDICATES FEW OR NO CLOUDS BELOW 12,000 FEET WITH NO
SIGNIFICANT WEATHER AND/OR OBSTRUCTIONS TO VISIBILITY.

AZZ001>003-036-191700-
NORTHWEST ARIZONA

CITY           SKY/WX    TMP DP  RH WIND       PRES   REMARKS
BULLHEAD CITY  MOSUNNY   84  46  26 S15       29.79S
KINGMAN        MOSUNNY   76  46  34 S20G29    29.94R
$$

AZZ004>008-015-016-018-191700-
NORTH CENTRAL ARIZONA

CITY           SKY/WX    TMP DP  RH WIND       PRES   REMARKS
GRAND CANYON   MOSUNNY   60  28  29 SW23G30   30.11R
WILLIAMS       SUNNY     63  34  34 S22G29    30.12R
PRESCOTT       SUNNY     68  34  28 S12G21    30.06S
FLAGSTAFF      MOSUNNY   57  31  37 SW21G30   30.15R
PAYSON           N/A     70  28  21 S8        30.12S
PAGE           CLOUDY    68  38  33 NW3       29.93R
$$

AZZ009>014-017-191700-
NORTHEAST ARIZONA

CITY           SKY/WX    TMP DP  RH WIND       PRES   REMARKS
WINSLOW        SUNNY     74  30  19 SW24G33   30.04S
SAINT JOHNS    SUNNY     72  35  25 SW24G36   30.09F
WINDOW ROCK    MOSUNNY   66  26  22 SW15G26   30.13S
SHOW LOW       SUNNY     66  36  32 S31G43    30.15R
$$

AZZ540-542>544-546-548-191700-
GREATER PHOENIX AREA

CITY           SKY/WX    TMP DP  RH WIND       PRES   REMARKS
PHOENIX        MOSUNNY   81  50  33 SE8       29.88R
BUCKEYE        SUNNY     82  45  26 E10       29.88R
GLENDALE       MOSUNNY   79  43  27 CALM      29.90R
LUKE AFB       SUNNY     79  40  24 CALM      29.88R
DEER VALLEY    SUNNY     82  46  28 SE9       29.89S
SCOTTSDALE     SUNNY     82  48  30 SE6       29.92R
MESA-GATEWAY   SUNNY     82  52  34 E7        29.91R
CHANDLER       SUNNY     82  54  36 CALM      29.90R
$$

AZZ539-553-191700-
SOUTHWEST MARICOPA COUNTY AND PINAL COUNTY

CITY           SKY/WX    TMP DP  RH WIND       PRES   REMARKS
CASA GRANDE    NOT AVBL
GILA BEND      SUNNY     83  46  27 CALM      29.85S
$$

AZZ503-504-507>509-191700-
SOUTHEAST ARIZONA

CITY           SKY/WX    TMP DP  RH WIND       PRES   REMARKS
TUCSON         SUNNY     83  62  49 SE7       30.00R
DAVIS-MONTHAN  SUNNY     83  62  47 S10       29.99R
NOGALES        SUNNY     80  62  54 S9        30.09R
SIERRA VISTA   SUNNY     79  54  41 SW18      30.13R
DOUGLAS        SUNNY     79  60  52 S9        30.10R
SAFFORD        SUNNY     81  34  18 VRB3      30.00R
$$

AZZ532-191700-
SOUTHWEST ARIZONA

CITY           SKY/WX    TMP DP  RH WIND       PRES   REMARKS
YUMA           SUNNY     82  65  56 SE6       29.81R
$$

CAZ041-043-047-048-061-525>527-560>570-191700-
SOUTHERN CALIFORNIA

CITY           SKY/WX    TMP DP  RH WIND       PRES   REMARKS
DOWNTOWN L.A.  CLOUDY    71  59  65 CALM      29.93R
L.A. AIRPORT   CLOUDY    70  61  73 S5        29.94R
SAN DIEGO      CLOUDY    70  59  68 S7        29.97R
BURBANK        CLOUDY    66  57  72 VRB3      29.94R
ONTARIO        CLOUDY    67  57  70 SW7       29.95R HAZE
RIVERSIDE      CLOUDY    67  59  75 W3        29.95R
PALM SPRINGS   SUNNY     79  54  41 VRB5      29.82S
EL CENTRO NAS  SUNNY     82  45  27 S9        29.82R
IMPERIAL       SUNNY     80  51  36 S8        29.79R
BLYTHE         SUNNY     82  55  39 S14       29.81R
NEEDLES        SUNNY     86  49  27 E5        29.81S
$$

NVZ020-UTZ003-191700-
SOUTHERN NEVADA-UTAH

CITY           SKY/WX    TMP DP  RH WIND       PRES   REMARKS
LAS VEGAS      PTSUNNY   77  42  28 S16G26    29.79R
SALT LAKE CITY CLOUDY    51  43  74 NW7       29.92R
$$

NMZ009-TXZ055-191700-
NEW MEXICO-WEST TEXAS

CITY           SKY/WX    TMP DP  RH WIND       PRES   REMARKS
ALBUQUERQUE    MOSUNNY   70  30  22 S8        30.09S
EL PASO        MOSUNNY   83  55  38 SW12      30.05R
$$


........................KEY........................
SKY/WX - SKY CONDITION/WEATHER
TMP    - TEMPERATURE IN FAHRENHEIT
DP     - DEW POINT IN FAHRENHEIT
RH     - RELATIVE HUMIDITY IN PERCENT
WIND   - DIRECTION AND SPEED IN MILES PER HOUR (MPH)
VRB    - VARIABLE WIND DIRECTION
PRES   - MEAN SEA LEVEL PRESSURE IN INCHES OF MERCURY
         F - FALLING PRESSURE   R - RISING PRESSURE
         S - STEADY PRESSURE
VSB    - VISIBILITY IN MILES
HX     - HEAT INDEX IN FAHRENHEIT
WCI    - WIND CHILL INDEX IN FAHRENHEIT
TC     - TEMPERATURE IN CELSIUS WHICH IS ALSO KNOWN AS
         TEMPERATURE IN CENTIGRADE
AFB    - AIR FORCE BASE
         LUKE AFB IS LUKE AIR FORCE BASE
         DAVIS-MONTHAN IS DAVIS-MONTHAN AIR FORCE BASE
NAS    - NAVAL AIR STATION
         EL CENTRO NAS IS EL CENTRO NAVAL AIR STATION
N/A    - NOT AVAILABLE





USA.gov is the U.S. government's official web portal to all federal, state and local government web resources and services.